Tracking 23446 objects as of 20-Jun-2021
HD Live streaming from Space Station
objects crossing your sky now

STARLINK-2505

Track STARLINK-2505 now!
10-day predictions
STARLINK-2505 is classified as:


NORAD ID: 48411
Int'l Code: 2021-038BL
Perigee: 355.2 km
Apogee: 358.5 km
Inclination: 53.0 °
Period: 91.5 minutes
Semi major axis: 6727 km
RCS: Unknown
Launch date: May 4, 2021
Source: United States (US)
Launch site: AIR FORCE EASTERN TEST RANGE (AFETR)
aabbcc
Your satellite tracking list
Your tracking list is empty




NASA's NSSDC Master Catalog

Two Line Element Set (TLE):
1 48411U 21038BL  21170.91668981  .00039450  00000-0  28399-3 0  9996
2 48411  53.0488 174.7459 0002472  29.3214 347.4209 15.73209935  1825
Source of the keplerian elements: AFSPC